[[{"header":{"parameterUnit":"m.s-1","parameterCategory":1,"la1":30.2991,"la2":30.254,"lo1":-89.0895,"lo2":-89.0444,"dy":0.0017,"dx":0.0017,"nx":28,"ny":28,"refTime":"2024-04-18T03:00:00:Z","depth":0,"parameterNumber":2,"parameterNumberName":"U-component_of_WINDS"},"data":[0,0,0,0,0,0,0,0,0,0,0,0,0,0,0,0,0,0,0,0,0,0,0,0,0,0,0,0,0,0,0,0,0,0,0,0,0,0,0,0,0,0,0,0,0,0,0,0,0,0,0,0,0,0,0,0,0,0,-1.1216,-1.1215,0,-1.1126,-1.1125,-1.1124,-1.1082,-1.1082,-1.1082,-1.1082,-1.0987,-1.0985,-1.0982,0,0,0,0,0,0,0,0,0,0,0,0,0,-1.1352,-1.135,-1.1217,-1.1215,-1.1214,-1.1126,-1.1125,-1.1123,-1.1082,-1.1082,-1.1082,-1.1082,-1.0988,-1.0985,-1.0982,0,0,0,0,0,0,0,0,0,0,0,0,0,-1.128,-1.1349,-1.1217,-1.1183,-1.1179,-1.1126,-1.1125,-1.1123,-1.1082,-1.1082,-1.1082,-1.1082,-1.0989,-1.0985,-1.0981,-1.0954,0,0,-1.0969,-1.0968,0,0,0,0,0,0,0,0,-1.1285,-1.1275,-1.1189,-1.1185,-1.1181,-1.1115,-1.1137,-1.1066,-1.1082,-1.1119,-1.1082,-1.1082,-1.103,-1.1022,-1.1005,-1.095,-1.0946,-1.0969,-1.0967,-1.0965,-1.0964,0,0,0,0,0,0,0,-1.129,-1.1279,-1.118,-1.1188,-1.1183,-1.1172,-1.1162,-1.1124,-1.1074,-1.1116,-1.1112,-1.1102,-1.1027,-1.1009,-1.1002,-1.0944,-1.0969,-1.0966,-1.0963,-1.0962,-1.0862,-1.0862,0,0,0,0,0,0,-1.13,-1.1284,-1.1183,-1.1178,-1.1234,-1.1169,-1.1158,-1.1136,-1.1075,-1.1066,-1.1102,-1.1101,-1.1015,-1.1007,-1.0999,-1.0963,-1.0965,-1.0961,-1.0959,-1.0863,-1.0862,-1.0862,0,0,0,0,0,0,-1.1303,-1.1292,-1.1187,-1.123,-1.1216,-1.1167,-1.1143,-1.1134,-1.1116,-1.1065,-1.1055,-1.1093,-1.1015,-1.1004,-1.0966,-1.0959,-1.0959,-1.0956,-1.0863,-1.0863,-1.0862,-1.0891,0,0,0,0,0,0,-1.1307,-1.1293,-1.1283,-1.123,-1.1214,-1.1156,-1.1142,-1.1132,-1.1109,-1.1106,-1.1053,-1.1044,-1.1014,-1.0972,-1.0962,-1.0954,-1.0953,-1.0863,-1.0863,-1.0862,-1.0891,-1.0892,-1.0893,0,0,0,0,0,-1.1312,-1.1294,-1.1283,-1.1271,-1.12,-1.1156,-1.1146,-1.1113,-1.1109,-1.1098,-1.1065,-1.1046,-1.0962,-1.0968,-1.0957,-1.0947,-1.0864,-1.0863,-1.0862,-1.089,-1.0892,-1.0893,0,0,0,0,0,0,-1.1347,-1.1287,-1.1273,-1.1237,-1.1202,-1.1149,-1.1134,-1.1116,-1.108,-1.1079,-1.1038,-1.1027,-1.0992,-1.0965,-1.0974,-1.0918,-1.0911,-1.0908,-1.0936,-1.0937,-1.0938,-1.0945,-1.095,0,0,0,0,0,-1.135,-1.1321,-1.1269,-1.1243,-1.1226,-1.1183,-1.1163,-1.114,-1.1102,-1.1087,-1.1051,-1.1014,-1.0979,-1.0956,-1.0921,-1.0887,-1.0874,-1.0875,-1.0876,-1.0877,-1.0875,-1.0854,-1.0854,-1.086,-1.086,-1.086,0,0,-1.1357,-1.1321,-1.1304,-1.1249,-1.1219,-1.1188,-1.1171,-1.1139,-1.1116,-1.1081,-1.1043,-1.1016,-1.0971,-1.0935,-1.0917,-1.0912,-1.087,-1.0876,-1.0878,-1.0874,-1.0854,-1.0853,-1.0852,-1.086,-1.086,-1.086,0,0,-1.1354,-1.1323,-1.1298,-1.1268,-1.1224,-1.1195,-1.119,-1.1139,-1.112,-1.1081,-1.1054,-1.1026,-1.0967,-1.0936,-1.0913,-1.0899,-1.088,-1.0888,-1.0894,-1.0874,-1.0874,-1.0873,-1.0868,-1.0866,-1.0886,-1.0886,-1.0886,0,-1.1368,-1.1321,-1.1287,-1.1257,-1.1233,-1.1201,-1.1175,-1.1148,-1.1093,-1.1077,-1.1073,-1.0998,-1.0966,-1.0922,-1.0919,-1.0901,-1.0892,-1.0894,-1.0877,-1.0876,-1.0875,-1.0869,-1.0867,-1.0888,-1.0888,-1.0887,-1.0887,0,-1.134,-1.1308,-1.1293,-1.1242,-1.1217,-1.1189,-1.1149,-1.1128,-1.1107,-1.1079,-1.104,-1.1001,-1.0957,-1.0945,-1.0925,-1.0898,-1.0896,-1.0885,-1.0877,-1.0876,-1.087,-1.0867,-1.089,-1.0889,-1.0889,-1.0888,0,0,-1.1355,-1.1287,-1.1281,-1.1258,-1.1207,-1.1181,-1.1151,-1.1109,-1.1091,-1.1055,-1.1029,-1.098,-1.0969,-1.0943,-1.0919,-1.0902,-1.0892,-1.0892,-1.089,-1.0893,-1.086,-1.0868,-1.0866,-1.088,-1.0879,-1.0879,-1.0863,0,-1.1344,-1.129,-1.1259,-1.1217,-1.1187,-1.1157,-1.1131,-1.1096,-1.107,-1.104,-1.101,-1.0975,-1.0964,-1.0948,-1.093,-1.0897,-1.0885,-1.0898,-1.0854,-1.0853,-1.0865,-1.0863,-1.0872,-1.0859,-1.0861,-1.086,-1.086,0,-1.1324,-1.129,-1.1246,-1.1198,-1.1184,-1.1161,-1.112,-1.1092,-1.1052,-1.1034,-1.1005,-1.0981,-1.0948,-1.0943,-1.0896,-1.0906,-1.0886,-1.0867,-1.0866,-1.086,-1.0856,-1.0856,-1.0854,-1.0852,-1.0856,-1.0856,-1.0857,0,-1.134,-1.1282,-1.1248,-1.1229,-1.1172,-1.1157,-1.1132,-1.1092,-1.1069,-1.1033,-1.1018,-1.0978,-1.0957,-1.0926,-1.0892,-1.0892,-1.0849,-1.0841,-1.0832,-1.0833,-1.0823,-1.0824,-1.0817,-1.0812,-1.0812,-1.0812,-1.0812,0,-1.133,-1.1305,-1.1254,-1.1233,-1.1203,-1.1167,-1.1138,-1.111,-1.1075,-1.1048,-1.1019,-1.0994,-1.0951,-1.092,-1.0893,-1.0859,-1.0849,-1.0833,-1.0826,-1.0835,-1.0837,-1.0821,-1.0821,-1.0811,-1.0811,-1.0812,-1.0812,0,-1.1342,-1.1307,-1.1268,-1.1218,-1.1204,-1.1184,-1.1141,-1.1119,-1.1091,-1.1057,-1.1047,-1.1003,-1.0965,-1.0929,-1.0878,-1.086,-1.0825,-1.0816,-1.0839,-1.0835,-1.0827,-1.0828,-1.0809,-1.0805,-1.0803,-1.0803,-1.0803,0,-1.1338,-1.1318,-1.1265,-1.1245,-1.1222,-1.119,-1.1167,-1.113,-1.1107,-1.106,-1.1043,-1.1004,-1.097,-1.0912,-1.0875,-1.0836,-1.0825,-1.0821,-1.0819,-1.0829,-1.0825,-1.0826,-1.0824,-1.0822,-1.0823,-1.0823,-1.0823,0,-1.1335,-1.1319,-1.1286,-1.1248,-1.1221,-1.1189,-1.1155,-1.114,-1.1097,-1.1072,-1.1034,-1.1008,-1.0957,-1.0918,-1.0875,-1.0849,-1.0828,-1.0824,-1.082,-1.0828,-1.0842,-1.0834,-1.0841,-1.0824,-1.0824,-1.0824,-1.0824,-1.0824,-1.1338,-1.1319,-1.1279,-1.1243,-1.1215,-1.1184,-1.1161,-1.1131,-1.1099,-1.1055,-1.1035,-1.0996,-1.0956,-1.0897,-1.0871,-1.084,-1.0834,-1.0828,-1.0827,-1.0825,-1.0827,-1.0848,-1.0832,-1.0832,-1.0832,-1.0832,-1.0831,0,-1.1333,-1.1306,-1.1274,-1.1229,-1.1201,-1.1185,-1.1148,-1.1125,-1.1092,-1.1057,-1.1025,-1.0981,-1.0943,-1.0903,-1.0863,-1.0845,-1.0835,-1.0836,-1.0836,-1.0831,-1.0835,-1.0842,-1.0845,-1.0845,-1.0845,-1.0845,-1.0845,-1.0845,-1.1327,-1.1293,-1.1272,-1.1223,-1.1196,-1.1159,-1.1138,-1.111,-1.1082,-1.1034,-1.1003,-1.0978,-1.094,-1.0897,-1.0862,-1.0851,-1.0837,-1.0841,-1.0827,-1.0831,-1.083,-1.083,-1.0836,-1.0838,-1.0838,-1.0826,-1.0825,-1.0825]},{"header":{"parameterUnit":"m.s-1","parameterCategory":1,"la1":30.2991,"la2":30.254,"lo1":-89.0895,"lo2":-89.0444,"dy":0.0017,"dx":0.0017,"nx":28,"ny":28,"refTime":"2024-04-18T03:00:00:Z","depth":0,"parameterNumber":3,"parameterNumberName":"V-component_of_WINDS"},"data":[0,0,0,0,0,0,0,0,0,0,0,0,0,0,0,0,0,0,0,0,0,0,0,0,0,0,0,0,0,0,0,0,0,0,0,0,0,0,0,0,0,0,0,0,0,0,0,0,0,0,0,0,0,0,0,0,0,0,4.1369,4.1368,0,4.1297,4.1296,4.1295,4.123,4.123,4.1229,4.1228,4.115,4.1149,4.1148,0,0,0,0,0,0,0,0,0,0,0,0,0,4.1447,4.1446,4.1369,4.1368,4.1367,4.1297,4.1296,4.1295,4.123,4.123,4.1229,4.1228,4.1151,4.1149,4.1148,0,0,0,0,0,0,0,0,0,0,0,0,0,4.1398,4.1446,4.1369,4.1327,4.1322,4.1297,4.1296,4.1295,4.1231,4.123,4.1228,4.1227,4.1151,4.1149,4.1147,4.1157,0,0,4.1141,4.114,0,0,0,0,0,0,0,0,4.1401,4.1395,4.1334,4.1329,4.1324,4.1271,4.1295,4.1249,4.1231,4.1265,4.1228,4.1227,4.1191,4.1186,4.1175,4.1154,4.1151,4.1141,4.114,4.1139,4.1138,0,0,0,0,0,0,0,4.1405,4.1398,4.134,4.1333,4.1327,4.131,4.1302,4.1286,4.1235,4.1262,4.1257,4.125,4.1189,4.1177,4.1173,4.1149,4.1141,4.1139,4.1138,4.1137,4.1134,4.1135,0,0,0,0,0,0,4.1415,4.1401,4.1342,4.1338,4.1361,4.131,4.13,4.129,4.1235,4.1226,4.1251,4.1247,4.1181,4.1175,4.117,4.1179,4.1139,4.1137,4.1136,4.1132,4.1134,4.1135,0,0,0,0,0,0,4.1417,4.141,4.1345,4.1368,4.1359,4.1309,4.1298,4.1289,4.1277,4.1227,4.1217,4.1249,4.118,4.1172,4.1161,4.1175,4.1136,4.1134,4.1131,4.1133,4.1134,4.1197,0,0,0,0,0,0,4.1419,4.1411,4.1416,4.1369,4.1358,4.134,4.1299,4.1288,4.1274,4.1269,4.1222,4.1213,4.1178,4.1165,4.1159,4.1171,4.1133,4.113,4.1132,4.1134,4.1193,4.12,4.1206,0,0,0,0,0,4.1422,4.1435,4.1416,4.1409,4.1362,4.1341,4.1334,4.1295,4.1276,4.1279,4.1247,4.1215,4.1174,4.1164,4.1158,4.1169,4.1129,4.1131,4.1134,4.119,4.1199,4.1206,0,0,0,0,0,0,4.1483,4.1428,4.1407,4.1404,4.1378,4.133,4.1333,4.1305,4.1282,4.1278,4.1228,4.1219,4.1213,4.119,4.118,4.1176,4.1147,4.1148,4.1192,4.12,4.1207,4.1213,4.1131,0,0,0,0,0,4.1496,4.1485,4.1436,4.1439,4.1427,4.1383,4.1372,4.1344,4.1314,4.1302,4.1269,4.124,4.122,4.1209,4.1188,4.1189,4.1178,4.1194,4.12,4.1206,4.1208,4.1207,4.1214,4.1143,4.1143,4.1143,0,0,4.1523,4.1492,4.1487,4.1451,4.1427,4.1415,4.1373,4.1362,4.1353,4.1299,4.1288,4.1263,4.1227,4.1223,4.1219,4.1203,4.1225,4.1209,4.1214,4.1213,4.1211,4.1217,4.1223,4.1145,4.1145,4.1145,0,0,4.1566,4.1541,4.1542,4.1519,4.1484,4.1454,4.1454,4.141,4.1392,4.138,4.134,4.1327,4.1295,4.1271,4.1255,4.1291,4.1261,4.1285,4.132,4.132,4.1325,4.133,4.1344,4.1349,4.1287,4.1287,4.1287,0,4.1604,4.1586,4.1545,4.1537,4.1522,4.1474,4.1474,4.1453,4.1413,4.1403,4.1386,4.1345,4.1318,4.1308,4.1317,4.1305,4.1303,4.129,4.1328,4.1332,4.1336,4.1348,4.1354,4.129,4.129,4.129,4.1289,0,4.1635,4.1623,4.1627,4.1591,4.1576,4.1572,4.1529,4.1519,4.1493,4.1465,4.1453,4.1418,4.139,4.1385,4.1358,4.1371,4.1363,4.1338,4.1307,4.1347,4.1358,4.1362,4.1295,4.1294,4.1293,4.1292,0,0,4.1714,4.1656,4.1659,4.1642,4.16,4.159,4.1583,4.1557,4.155,4.1523,4.1517,4.1491,4.1467,4.1449,4.1419,4.1419,4.145,4.1393,4.1392,4.1406,4.1463,4.1484,4.149,4.143,4.1431,4.1431,4.1467,0,4.1752,4.1739,4.1702,4.17,4.1688,4.1643,4.1637,4.161,4.1584,4.1569,4.1539,4.1522,4.1492,4.1481,4.1479,4.1447,4.1461,4.1444,4.1423,4.1423,4.1435,4.1495,4.1516,4.1552,4.1471,4.1471,4.1472,0,4.1794,4.1772,4.177,4.1729,4.1723,4.1719,4.1693,4.1679,4.1648,4.1628,4.1609,4.1576,4.1565,4.1537,4.1522,4.1511,4.15,4.1483,4.1484,4.1481,4.1451,4.1495,4.1562,4.1568,4.1478,4.1477,4.1477,0,4.1854,4.1824,4.1819,4.1806,4.1758,4.1756,4.1736,4.1703,4.1691,4.1667,4.1658,4.1633,4.1619,4.16,4.1561,4.1544,4.1551,4.1519,4.1535,4.1536,4.1539,4.1539,4.1606,4.153,4.153,4.153,4.153,0,4.19,4.1901,4.1845,4.1842,4.1842,4.1798,4.1798,4.1773,4.1745,4.1736,4.1694,4.1686,4.1634,4.162,4.1589,4.1582,4.1575,4.1559,4.1551,4.1564,4.1566,4.1557,4.1554,4.1531,4.1531,4.1531,4.1531,0,4.1967,4.193,4.1922,4.1878,4.1867,4.1868,4.183,4.1825,4.1796,4.1785,4.178,4.1734,4.1716,4.1675,4.1644,4.1623,4.1624,4.1609,4.1635,4.1631,4.1649,4.1648,4.1713,4.1719,4.1639,4.1639,4.164,0,4.2,4.2,4.1956,4.1948,4.193,4.1917,4.1904,4.1861,4.1849,4.1813,4.1813,4.1791,4.1771,4.1743,4.1707,4.1683,4.1668,4.1692,4.1664,4.1677,4.1669,4.167,4.167,4.1698,4.17,4.17,4.1701,0,4.2062,4.2044,4.2028,4.2006,4.1992,4.1972,4.1949,4.1945,4.1896,4.1884,4.1866,4.1851,4.182,4.1799,4.1771,4.1748,4.1717,4.171,4.1713,4.1726,4.1742,4.1735,4.1654,4.1709,4.1708,4.1708,4.1707,4.1707,4.2114,4.2112,4.2082,4.2065,4.2044,4.2024,4.2018,4.1989,4.1973,4.1946,4.1921,4.1905,4.1873,4.1831,4.1811,4.1797,4.1781,4.1785,4.1786,4.1788,4.1794,4.1744,4.1792,4.1791,4.1791,4.1791,4.1791,0,4.2175,4.2153,4.2139,4.211,4.2097,4.2069,4.2043,4.2034,4.2021,4.1994,4.1976,4.1955,4.1934,4.1897,4.1873,4.1869,4.1854,4.1864,4.1865,4.186,4.1809,4.181,4.1877,4.1877,4.1877,4.1877,4.1877,4.1877,4.2205,4.2201,4.218,4.2164,4.2142,4.2127,4.2115,4.2096,4.2075,4.2054,4.2037,4.2013,4.1982,4.1956,4.1936,4.1925,4.1918,4.1934,4.1919,4.1872,4.1863,4.1856,4.1856,4.1932,4.1933,4.1971,4.1972,4.1972]}]]